Tracking 17996 objects as of 28-February-2017
HD Live streaming from Space Station
objects crossing your sky now

NAVSTAR 30 (USA 88)

Track NAVSTAR 30 (USA 88) now!
NAVSTAR 30 (USA 88) is classified as:


NORAD ID: 22446
Int'l Code: 1993-007A
Perigee: 21,284.7 km
Apogee: 21,417.0 km
Inclination: 55.5 °
Period: 765.6 minutes
Semi major axis: 27721 km
RCS: 2.5118 m2 (large)
Launch date: February 3, 1993
Source: United States (US)
Launch site: AIR FORCE EASTERN TEST RANGE (AFETR)
PRN:
Your satellite tracking list
Your tracking list is empty





NASA's NSSDC Master Catalog

Two Line Element Set (TLE):
1 22446U 93007A   17058.25484958 -.00000064  00000-0  00000+0 0  9993
2 22446  55.4817   3.6573 0023868 330.3196 274.8036  1.88091869170150
Source of the keplerian elements: AFSPC